Voltar ao catálogo

FENGYUN 1C DEB

AtivoSSO
NORAD 29997·DEBRIS·🇨🇳 China

Lançado May 10, 1999 de Taiyuan Satellite Launch Center

Loading…

Próximas Passagens (próximas 24 horas)

TLE

AtualizadoSource: Space-Track

Época: Sep 13, 2026, 23:05 UTC

1 29997U 99025LX  26256.96186325  .00000792  00000-0  54039-3 0  9994
2 29997  98.8809 265.0519 0078053 282.8690  94.8627 14.01330773  2407

Acompanhe FENGYUN 1C DEB em tempo real com AllMySat

Download on the App Store